Location: Garfield
(40.8815°N, 74.1132°W)
Time: 02:48:06
(UTC+00:00)

Daily predictions for brighter satellites

Satellite Brightness Start Highest point End
(mag) Time Altitude Azimuth Time Altitude Azimuth Time Altitude Azimuth
Cosmos 1536 Rocket 4.2 00:01:44 10° N 00:05:50 35° ENE 00:08:22 20° SE
Cosmos 372 Rocket 4.0 00:01:39 10° SSW 00:06:54 89° NW 00:12:09 10° NNE
Cosmos 2263 Rocket 3.9 00:03:40 10° WSW 00:08:42 35° WNW 00:13:48 10° N
Cosmos 1464 Rocket 3.9 00:03:11 10° S 00:09:15 75° E 00:15:25 10° N
Cosmos 1844 4.0 00:04:39 10° S 00:09:58 41° ESE 00:15:15 10° NE
Cosmos 1025 Rocket 3.1 00:06:45 10° N 00:11:03 54° E 00:14:52 13° SSE
USA 186 2.3 00:11:48 34° E 00:12:17 37° ENE 00:15:18 10° N
BREEZE-M DEB (TANK) 3.2 00:09:48 10° SW 00:12:44 78° SE 00:21:29 10° NE
Cosmos 1844 Rocket 2.7 00:09:18 10° S 00:14:43 57° ESE 00:20:11 10° NNE
Cosmos 1867 3.6 00:11:03 10° NNW 00:16:33 86° WSW 00:21:02 15° SSE
ISS -2.1 00:17:11 10° W 00:20:16 32° NNW 00:22:47 13° NE
Cosmos 2151 Rocket 3.5 00:17:38 10° S 00:22:03 71° E 00:26:32 10° NNE
USA 234 3.6 00:17:33 10° ENE 00:23:40 41° SE 00:29:46 10° SSW
Lacrosse 5 rocket 4.3 00:25:57 10° NNW 00:26:29 10° N 00:27:00 10° N
Cosmos 2150 Rocket 4.0 00:21:12 10° SSW 00:26:33 85° ESE 00:32:01 10° NNE
MetOp-A 4.4 00:26:18 27° SE 00:28:50 48° ENE 00:33:59 10° N
Cosmos 1125 Rocket 3.5 00:25:41 10° S 00:30:53 61° ESE 00:36:08 10° NNE
MOS 1 4.4 00:27:58 23° SE 00:31:24 57° ENE 00:37:00 10° N
CZ-2C R/B 2.1 00:29:26 10° WSW 00:32:33 28° S 00:32:43 28° S
DMSP B5D2-2 4.0 00:31:42 10° NNE 00:36:57 61° E 00:42:09 10° S
NOSS 3-2 (C) 4.3 00:31:16 10° NNW 00:38:37 51° NE 00:42:21 32° ESE
Exosat Rocket 3.5 00:33:06 10° S 00:38:54 65° ESE 00:43:52 10° NNE
Cosmos 1833 Rocket 4.5 00:36:47 10° NNE 00:39:58 15° NE 00:40:10 15° NE
NOSS 3-4 (A) 3.7 00:35:09 10° S 00:40:34 40° ESE 00:42:16 33° ENE
NOSS 3-4 (C) 3.7 00:35:17 10° S 00:40:40 40° ESE 00:41:56 35° E
Cosmos 468 4.5 00:45:12 10° NNW 00:50:34 87° WSW 00:52:48 36° SSE
Meteor 1-15 Rocket 4.2 00:48:09 10° S 00:53:46 88° W 00:59:30 10° N
Cosmos 1674 2.8 00:50:39 10° N 00:54:01 66° N 00:54:01 66° N
Cosmos 1805 4.1 00:57:53 41° NNE 00:57:53 41° NNE 01:00:31 10° N
Resurs 01 Rocket 3.0 00:59:15 27° NNE 00:59:15 27° NNE 01:01:48 10° N
Abrixas rocket 4.5 00:56:00 10° NW 00:57:14 17° NNW 00:57:14 17° NNW
H-2A R/B 3.7 00:54:04 10° SSW 00:58:24 30° W 01:02:51 10° NW
IRS-1A Rocket 4.5 00:55:43 21° S 00:59:50 74° WSW 01:05:43 10° NNW
Cosmos 1048 Rocket 4.1 00:55:54 10° NNW 01:01:14 74° WSW 01:03:09 40° S
Nadezhda 4 Rocket 4.2 00:56:37 10° NNW 01:02:41 68° W 01:07:55 14° S
ATLAS 2AS CENTAUR R/B 3.0 00:55:22 10° SSW 01:03:03 59° ESE 01:10:49 10° NE
BREEZE-M TANK 3.2 00:55:46 10° W 01:04:22 64° NNW 01:05:14 50° NE
CENTAUR R/B 3.2 01:03:16 10° NNW 01:11:28 72° NE 01:14:15 48° ESE
Cosmos 1269 Rocket 4.5 01:11:03 10° N 01:15:26 48° NNE 01:15:26 48° NNE
Okean 1 Rocket 3.4 01:16:18 60° WSW 01:16:42 64° W 01:21:10 10° N
Ariane Rocket 3.9 01:16:43 25° SSW 01:19:15 44° W 01:24:08 10° NNW
ATLAS 3B R/B 3.7 01:13:28 10° NNW 01:19:31 32° NE 01:20:03 31° NE
OBJECT-B 3.5 01:23:19 17° NNW 01:23:19 17° NNW 01:24:11 10° NNW
Cosmos 2082 Rocket 4.0 01:20:58 10° N 01:23:32 17° NNE 01:23:32 17° NNE
Cosmos 494 Rocket 4.1 01:21:27 10° NNW 01:26:42 68° WSW 01:26:49 68° WSW
USA 238 DEB 4.0 01:19:54 10° NW 01:27:08 68° WSW 01:29:18 48° S
USA 238 4.0 01:20:01 10° NW 01:27:15 69° WSW 01:29:22 48° S
Meteor 2-5 Rocket 3.7 01:21:50 10° NNW 01:27:31 81° W 01:27:52 77° SSW
Meteor 1-22 Rocket 4.2 01:32:16 82° SW 01:32:28 85° W 01:38:32 10° N
CZ-2C R/B 4.1 01:28:54 10° N 01:33:58 38° WNW 01:39:05 10° SW
Cosmos 1634 Rocket 4.1 01:37:17 45° SSW 01:39:10 69° W 01:45:21 10° N
COSMOS 2406 4.0 01:34:11 10° NNW 01:38:13 41° NNE 01:38:13 41° NNE
SPOT 3 Rocket 4.1 01:44:55 54° WNW 01:44:55 54° WNW 01:49:21 10° NNW
Meteor 1-24 Rocket 4.0 01:39:45 10° NNW 01:44:32 64° NW 01:44:32 64° NW
USA 234 3.6 02:04:41 41° NNE 02:06:48 59° NW 02:13:12 10° WSW
Lacrosse 5 rocket 4.4 02:05:30 10° N 02:06:10 11° N 02:06:10 11° N
Cosmos 1833 Rocket 4.2 02:19:02 10° NNW 02:21:52 31° NNW 02:21:52 31° NNW
ATLAS 2AS CENTAUR R/B 4.1 02:47:06 10° WSW 02:54:25 39° NW 03:01:42 10° NNE
CENTAUR R/B 4.5 02:54:49 10° NW 03:01:27 30° WSW 03:01:27 30° WSW
ATLAS 3B R/B 4.1 03:03:47 10° NW 03:07:18 32° NW 03:07:18 32° NW
Cosmos 1697 Rocket 4.4 07:06:50 28° NE 07:06:50 28° NE 07:09:27 10° NNE
Cosmos 1980 Rocket 3.9 07:10:59 29° ENE 07:10:59 29° ENE 07:14:20 10° NE
ADEOS II 3.8 07:25:48 10° N 07:28:11 28° N 07:28:11 28° N
ARIANE 5 R/B 3.9 07:29:12 10° NNE 07:32:21 35° NE 07:32:21 35° NE
CZ-3B R/B 4.5 07:37:59 18° NNE 07:37:59 18° NNE 07:40:12 10° NE
Nadezhda 3 Rocket 4.4 07:41:12 54° N 07:41:12 54° N 07:45:51 10° N
IDEFIX/ARIANE 42P 3.6 07:34:57 10° NNE 07:39:15 42° ENE 07:39:15 42° ENE
SJ 16-02 3.8 07:47:48 10° NNE 07:51:08 21° ENE 07:54:26 10° ESE
Cosmos 1238 Rocket 4.4 07:50:56 10° N 07:57:25 59° E 08:00:20 31° SE
H-2A R/B 4.2 07:55:47 10° ESE 07:59:23 26° ENE 08:03:03 10° NNE
Lacrosse 5 3.1 08:06:13 32° N 08:06:13 32° N 08:09:49 10° NNE
CZ-2D R/B 4.4 08:03:28 10° NNW 08:04:03 12° NNW 08:04:03 12° NNW
Cosmos 2278 4.0 08:08:13 59° NNW 08:08:13 59° NNW 08:13:04 10° NNE
Resurs 1-4 Rocket 4.5 08:10:01 10° NNW 08:10:13 11° NNW 08:10:13 11° NNW
X-37B 3.4 08:18:53 19° ENE 08:18:53 19° ENE 08:20:05 10° ENE
NOSS 3-3 (A) 3.7 08:19:03 72° SSW 08:19:41 84° ESE 08:26:04 10° NE
NOSS 3-3 (C) 3.7 08:19:13 73° S 08:19:49 83° ESE 08:26:08 10° NE
USA 267 3.5 08:14:56 10° NE 08:21:15 53° NNW 08:22:28 47° WNW
Cosmos 1339 Rocket 4.4 08:29:39 38° S 08:32:18 88° W 08:38:33 10° N
Spot 4 Rocket 4.0 08:30:01 10° N 08:35:06 62° WNW 08:35:06 62° WNW
Meteor 2-7 Rocket 4.5 08:37:37 51° SSW 08:39:03 80° W 08:44:35 10° N
SL-8 R/B 3.9 08:39:54 46° NW 08:41:11 67° NNE 08:45:56 10° ESE
ADEOS Rocket 4.2 08:35:41 10° SE 08:42:10 47° ENE 08:48:02 10° N
Cosmos 921 Rocket 3.1 08:43:18 59° NNW 08:43:18 59° NNW 08:46:57 10° NNE
Cosmos 2360 Rocket 4.1 08:38:33 10° SSE 08:43:12 27° ESE 08:47:51 10° NE
Cosmos 1898 Rocket 4.5 08:39:28 10° N 08:44:34 48° ENE 08:49:39 10° SE
MSX 3.7 08:39:18 10° N 08:45:04 70° WNW 08:47:06 41° SW
CZ-4C R/B 3.6 08:47:18 48° N 08:47:18 48° N 08:49:57 10° NNW
Cosmos 1812 2.7 08:46:42 73° NNW 08:46:42 73° NNW 08:50:15 10° N
Timation 1 Rocket 4.4 08:42:01 10° NW 08:47:46 49° WSW 08:53:30 10° S
Cosmos 1697 Rocket 4.2 08:48:35 20° NW 08:48:35 20° NW 08:52:27 10° N
Cosmos 1500 3.6 08:44:34 10° N 08:47:33 52° NNW 08:47:33 52° NNW
IRIDIUM 104 4.4 08:43:17 10° N 08:48:32 77° E 08:53:44 10° S
Cosmos 1707 Rocket 4.1 08:49:22 13° S 08:53:04 56° E 08:57:20 10° NNE
Cosmos 1980 Rocket 3.0 08:52:46 32° WNW 08:53:10 33° WNW 08:58:15 10° N
Cosmos 1666 3.6 08:50:16 10° N 08:53:59 49° E 08:57:39 10° SSE
USA 234 3.2 08:48:14 10° SE 08:54:46 88° NE 09:01:20 10° NW
IRIDIUM 114 4.2 08:52:25 10° N 08:57:41 87° W 09:02:53 10° S
Cosmos 2322 Rocket 2.4 08:55:32 18° S 08:59:51 71° ESE 09:05:32 10° NNE
BREEZE-M DEB (TANK) 3.2 08:55:57 31° WSW 08:59:53 82° SSE 09:03:20 10° ENE
BREEZE-M DEB (TANK) 3.5 09:01:04 35° NW 09:01:40 38° NNW 09:07:17 10° ENE
Cosmos 2263 Rocket 2.1 08:56:23 10° NNW 09:02:03 77° WSW 09:07:42 10° SSE
USA 32 4.3 08:58:10 10° N 09:03:26 69° E 09:08:39 10° SSE
IRIDIUM 103 4.2 09:01:36 10° N 09:06:48 72° W 09:11:59 10° S
SL-16 R/B 2.1 09:05:31 23° SSW 09:09:09 80° WNW 09:14:51 10° NNE
Cosmos 2228 Rocket 3.8 09:09:42 32° WNW 09:09:42 32° WNW 09:13:27 10° NNW
ADEOS II 4.2 09:08:35 10° NW 09:09:07 11° NW 09:09:07 11° NW
SL-4 R/B 2.2 09:08:18 37° SW 09:10:05 85° SE 09:14:53 10° NE
Cosmos 1937 Rocket 4.1 09:05:03 10° NNW 09:10:08 57° ENE 09:15:10 10° SSE
FALCON 9 DEB 3.0 09:10:01 59° SW 09:10:36 87° NNW 09:14:02 10° NE
Cosmos 1733 Rocket 4.2 09:08:34 10° N 09:12:45 45° ENE 09:16:53 10° SSE
ARIANE 5 R/B 3.9 09:09:17 10° NNW 09:12:41 19° WNW 09:12:41 19° WNW
ADEOS 4.1 09:09:52 10° NNE 09:15:02 59° ESE 09:20:10 10° S
Meteor 1-4 Rocket 2.7 09:16:32 42° W 09:16:42 43° WNW 09:20:03 10° N
Cosmos 841 Rocket 4.0 09:11:42 10° S 09:16:49 61° ESE 09:22:01 10° NNE
Cosmos 44 Rocket 3.9 09:12:56 11° SSW 09:17:20 53° ESE 09:22:01 10° NE
Gbstr 26 Del rocket 4.4 09:10:04 10° NW 09:18:10 82° NE 09:25:15 10° ESE
Cosmos 2173 Rocket 4.4 09:12:06 10° N 09:18:26 67° E 09:24:45 10° SSE
IDEFIX/ARIANE 42P 3.7 09:15:11 10° NNW 09:19:17 23° WNW 09:20:03 23° WNW
CZ-2C R/B 2.5 09:14:23 10° N 09:19:30 68° WNW 09:24:39 10° SSW
Cosmos 1869 Rocket 3.8 09:15:44 10° NNW 09:19:50 43° W 09:23:55 10° SSW
Cosmos 2227 4.3 09:15:42 10° NW 09:21:07 49° WSW 09:26:30 10° S
Meteor 1-10 Rocket 4.5 09:17:09 18° SW 09:21:15 50° WNW 09:26:58 10° N
CZ-2C R/B 4.1 09:19:08 10° NNW 09:21:45 22° WNW 09:21:45 22° WNW
ERBS 3.7 09:22:46 24° NW 09:23:17 24° NW 09:26:07 10° NNE
Cosmos 1763 Rocket 3.6 09:21:34 19° SW 09:25:22 57° WNW 09:30:37 10° NNE
Cosmos 1862 Rocket 4.0 09:22:55 10° S 09:27:15 65° E 09:31:35 10° NNE
SJ-6F 4.3 09:24:57 10° NNE 09:29:05 89° W 09:33:08 10° SSW
SJ 16-02 1.8 09:25:47 10° NW 09:29:48 35° W 09:33:48 10° SSW
PSLV R/B 3.9 09:27:58 10° N 09:31:55 40° WNW 09:34:43 17° SW
Cosmos 967 Rocket 4.5 09:27:03 13° SW 09:32:54 74° WNW 09:39:21 10° NNE
Cosmos 1743 4.3 09:29:38 10° N 09:33:13 38° ENE 09:36:46 10° SSE
CZ-4B R/B 1.2 09:31:28 10° SSE 09:34:36 89° ENE 09:37:50 10° NNW
H-2A R/B 2.9 09:31:26 10° SSW 09:35:13 29° W 09:39:07 10° NW
DEBRIS 2.8 09:34:58 22° WNW 09:36:37 63° SSW 09:43:01 10° SE
Cosmos 1570 Rocket 4.0 09:33:48 10° SSW 09:39:06 86° WNW 09:44:30 10° NNE
PKM 4.4 09:37:34 10° NW 09:41:10 62° NE 09:45:18 10° ESE
Cosmos 1689 Rocket 3.6 09:41:27 10° SE 09:44:15 40° ENE 09:47:04 10° N
ERS-2 2.9 09:44:58 10° SSW 09:48:11 29° W 09:51:28 10° NW
Cosmos 2016 Rocket 4.2 09:43:03 10° N 09:49:11 77° E 09:55:16 10° SSE
Lacrosse 5 4.1 09:46:41 10° NW 09:49:27 14° NNW 09:52:13 10° NNE
Cosmos 2333 Rocket 3.8 09:44:28 10° S 09:49:43 38° ESE 09:55:00 10° NE
Cosmos 990 Rocket 4.4 09:45:49 10° NW 09:50:36 38° WSW 09:55:23 10° S
Cosmos 1000 Rocket 4.5 09:44:30 10° SSW 09:50:39 66° W 09:56:48 10° N
Okean 1 3.9 09:47:37 10° S 09:51:37 62° E 09:55:38 10° NNE
Cosmos 540 Rocket 3.5 09:46:57 10° SSW 09:52:03 64° WNW 09:57:13 10° NNE
Meteor 2-20 4.4 09:46:24 10° S 09:52:33 82° W 09:58:42 10° N
CZ-4B R/B 3.6 09:49:46 10° NNE 09:53:20 50° E 09:56:48 10° S
X-37B 0.6 09:51:10 13° WNW 09:53:56 86° NNE 09:57:07 10° ESE
CZ-4B R/B 4.1 09:50:47 10° N 09:55:09 82° WNW 09:59:37 10° SSW
Cosmos 2322 4.4 09:52:35 10° S 09:58:06 58° ESE 10:03:40 10° NNE
ALOS 2.2 09:54:43 10° N 09:59:22 67° WNW 10:03:59 10° SSW
Cosmos 1484 Rocket 2.9 09:55:36 10° N 09:59:31 56° WNW 10:03:26 10° SSW
COSMO-SKYMED 1 3.1 09:57:46 10° SSE 10:02:03 65° ENE 10:06:23 10° N
NOSS 3-4 (A) 4.0 09:57:02 10° NW 10:04:12 86° WSW 10:12:06 10° SSE
NOSS 3-4 (C) 4.0 09:57:08 10° NW 10:04:18 86° WSW 10:12:13 10° SSE
Cosmos 1536 3.7 10:03:29 10° NNW 10:07:00 28° W 10:10:31 10° SSW
Cosmos 1725 Rocket 4.0 10:02:48 10° N 10:09:02 90° WSW 10:15:12 10° S
Meteor 1-31 Rocket 3.0 10:07:21 10° N 10:11:04 49° WNW 10:14:47 10° SSW
Cosmos 1437 Rocket 2.7 10:09:49 10° SSW 10:13:32 58° WNW 10:17:19 10° N
Cosmos 2100 Rocket 4.4 10:09:27 10° NNW 10:15:22 41° W 10:21:15 10° SSW
Cosmos 2333 4.4 10:10:08 10° SSW 10:15:54 83° ESE 10:21:43 10° NNE
Cosmos 1544 3.0 10:12:25 10° N 10:16:02 89° SW 10:19:35 10° S
PSLV R/B 3.9 10:12:50 10° S 10:16:53 80° WSW 10:20:59 10° NNW
USA 281 4.4 10:12:39 10° NE 10:18:57 47° ESE 10:25:14 10° S
deb Chang Zheng 4 4.5 10:16:01 10° N 10:19:42 28° WNW 10:23:21 10° SW
Cosmos 1802 Rocket 4.2 10:14:49 10° NNW 10:20:46 50° W 10:26:46 10° SSW
